Voltar ao catálogo

ONEWEB-0377

AtivoComunicaçõesPO
NORAD 49303·PAYLOAD·🇬🇧 United Kingdom

Lançado Oct 14, 2021 de Vostochny Cosmodrome

Loading…

Próximas Passagens (próximas 24 horas)

TLE

AtualizadoSource: CelesTrak SupGP

Época: Sep 14, 2026, 19:10 UTC

1 49303C 21090AA  26257.79878889  .00001768  00000+0  43540-2 0  2573
2 49303  87.9137 256.5602 0002239  96.2326 340.1313 13.20768123    15

Acompanhe ONEWEB-0377 em tempo real com AllMySat

Download on the App Store